Date String (YYYY-MM-DD hh:mm:ss) UTC,Instrument flags,Ambient pressure (hPa),Sample flow (lpm),Bypass flow (lpm),Sample temperature (°C),Ambient temperature (°C),ASC tube jacket temperature (°C),LED temperature (°C),Box temperature (°C),Sample RH (%),Span deviation,Mass concentration (μg/m³),Mass concentration (μg/m³),Mass concentration (μg/m³)
DateTimeUTC,F1_M11,P_M11,Q1_M11,Q2_M11,T1_M11,T2_M11,T3_M11,T4_M11,T5_M11,U1_M11,ZSPAN_M11,X0_M11,X2_M11,X1_M11
2022-01-10 16:00:00,,0839.9,4.99,0.00,23.1,22.5,00.0,31.9,25.0,06.1,0000.0,0002.10,0000.73,0000.42
2022-01-10 16:01:00,,0839.9,5.01,0.00,23.1,22.5,00.0,32.0,25.0,06.1,0000.0,0002.03,0000.71,0000.41
2022-01-10 16:02:00,,0839.9,5.00,0.00,23.2,22.5,00.0,32.0,25.0,06.2,0000.0,0002.05,0000.71,0000.41
2022-01-10 16:03:00,,0839.9,5.00,0.00,23.2,22.5,00.0,32.0,25.0,06.1,0000.0,0002.19,0000.69,0000.42
2022-01-10 16:04:00,,0839.9,5.00,0.00,23.2,22.5,00.0,32.0,25.0,06.0,0000.0,0002.09,0000.70,0000.42
2022-01-10 16:05:00,,0839.9,5.01,0.00,23.2,22.6,00.0,32.0,25.0,06.1,0000.0,0002.01,0000.69,0000.42
2022-01-10 16:06:00,,0839.9,4.98,0.00,23.2,22.6,00.0,32.0,25.1,06.4,0000.0,0002.05,0000.69,0000.41
2022-01-10 16:07:00,,0839.9,5.01,0.00,23.3,22.6,00.0,32.1,25.1,06.4,0000.0,0001.94,0000.66,0000.40
2022-01-10 16:08:00,,0839.9,5.00,0.00,23.3,22.6,00.0,32.1,25.1,06.4,0000.0,0003.31,0000.66,0000.41
2022-01-10 16:09:00,,0839.9,4.99,0.00,23.3,22.6,00.0,32.1,25.1,06.4,0000.0,0003.36,0000.69,0000.41
2022-01-10 16:10:00,,0839.9,5.01,0.00,23.3,22.6,00.0,32.1,25.1,06.4,0000.0,0003.30,0000.67,0000.41
2022-01-10 16:11:00,,0839.9,5.00,0.00,23.3,22.6,00.0,32.1,25.2,06.5,0000.0,0003.29,0000.67,0000.42
2022-01-10 16:12:00,,0839.9,5.01,0.00,23.3,22.7,00.0,32.1,25.2,06.7,0000.0,0003.42,0000.67,0000.43
2022-01-10 16:13:00,,0839.9,4.99,0.00,23.3,22.7,00.0,32.2,25.2,06.9,0000.0,0004.21,0000.67,0000.42
2022-01-10 16:14:00,,0839.9,5.00,0.00,23.3,22.7,00.0,32.2,25.2,06.9,0000.0,0004.09,0000.67,0000.42
2022-01-10 16:15:00,,0839.9,5.01,0.00,23.4,22.7,00.0,32.2,25.2,06.9,0000.0,0004.11,0000.66,0000.41
2022-01-10 16:16:00,,0839.9,5.00,0.00,23.4,22.7,00.0,32.2,25.2,06.8,0000.0,0004.20,0000.69,0000.41
2022-01-10 16:17:00,,0839.9,5.00,0.00,23.4,22.7,00.0,32.2,25.3,06.7,0000.0,0004.13,0000.70,0000.42
2022-01-10 16:18:00,,0839.8,5.00,0.00,23.4,22.7,00.0,32.2,25.3,06.6,0000.0,0004.16,0000.70,0000.42
2022-01-10 16:19:00,,0839.8,5.00,0.00,23.4,22.8,00.0,32.3,25.3,06.6,0000.0,0002.71,0000.72,0000.42
2022-01-10 16:20:00,,0839.8,5.00,0.00,23.5,22.8,00.0,32.3,25.3,06.7,0000.0,0002.57,0000.69,0000.42
2022-01-10 16:21:00,,0839.8,5.00,0.00,23.5,22.8,00.0,32.3,25.4,06.5,0000.0,0002.67,0000.74,0000.42
2022-01-10 16:22:00,,0839.8,5.00,0.00,23.5,22.8,00.0,32.3,25.4,06.1,0000.0,0002.75,0000.78,0000.41
2022-01-10 16:23:00,,0839.8,5.00,0.00,23.5,22.8,00.0,32.3,25.4,06.2,0000.0,0003.53,0000.77,0000.40
2022-01-10 16:24:00,,0839.8,4.99,0.00,23.5,22.8,00.0,32.3,25.4,06.6,0000.0,0003.88,0000.77,0000.40
2022-01-10 16:25:00,,0839.8,5.00,0.00,23.6,22.9,00.0,32.4,25.4,06.4,0000.0,0003.94,0000.76,0000.40
2022-01-10 16:26:00,,0839.8,5.02,0.00,23.6,22.9,00.0,32.4,25.4,06.3,0000.0,0003.80,0000.73,0000.39
2022-01-10 16:27:00,,0839.8,5.00,0.00,23.6,22.9,00.0,32.4,25.4,06.1,0000.0,0003.72,0000.68,0000.38
2022-01-10 16:28:00,,0839.8,5.00,0.00,23.6,22.9,00.0,32.4,25.4,05.9,0000.0,0003.72,0000.67,0000.37
2022-01-10 16:29:00,,0839.8,4.99,0.00,23.6,22.9,00.0,32.4,25.4,05.9,0000.0,0003.67,0000.65,0000.36
2022-01-10 16:30:00,,0839.8,5.00,0.00,23.6,22.9,00.0,32.4,25.5,06.1,0000.0,0004.02,0000.63,0000.35
2022-01-10 16:31:00,,0839.8,4.99,0.00,23.6,22.9,00.0,32.4,25.5,06.2,0000.0,0004.45,0000.63,0000.34
2022-01-10 16:32:00,,0839.8,5.02,0.00,23.6,23.0,00.0,32.5,25.5,06.3,0000.0,0004.55,0000.61,0000.33
2022-01-10 16:33:00,,0839.8,4.99,0.00,23.7,23.0,00.0,32.5,25.5,06.4,0000.0,0004.60,0000.58,0000.33
2022-01-10 16:34:00,,0839.8,5.01,0.00,23.7,23.0,00.0,32.5,25.5,06.5,0000.0,0003.87,0000.57,0000.33
2022-01-10 16:35:00,,0839.8,5.00,0.00,23.7,23.0,00.0,32.5,25.5,06.4,0000.0,0002.60,0000.61,0000.33
2022-01-10 16:36:00,,0839.8,4.99,0.00,23.7,23.0,00.0,32.5,25.6,06.5,0000.0,0002.45,0000.66,0000.33
2022-01-10 16:37:00,,0839.9,5.01,0.00,23.7,23.0,00.0,32.5,25.6,06.5,0000.0,0002.56,0000.70,0000.34
2022-01-10 16:38:00,,0839.9,5.01,0.00,23.7,23.1,00.0,32.6,25.6,06.2,0000.0,0002.64,0000.73,0000.34
2022-01-10 16:39:00,,0839.9,5.00,0.00,23.8,23.1,00.0,32.6,25.6,06.4,0000.0,0003.41,0000.77,0000.35
2022-01-10 16:40:00,,0839.9,4.99,0.00,23.8,23.1,00.0,32.6,25.6,06.4,0000.0,0003.93,0000.79,0000.36
2022-01-10 16:41:00,,0839.9,5.00,0.00,23.8,23.1,00.0,32.6,25.7,06.5,0000.0,0003.43,0000.82,0000.36
2022-01-10 16:42:00,,0839.9,5.02,0.00,23.8,23.1,00.0,32.6,25.7,06.5,0000.0,0003.30,0000.87,0000.37
2022-01-10 16:43:00,,0839.9,4.99,0.00,23.8,23.2,00.0,32.6,25.7,06.5,0000.0,0003.09,0000.84,0000.37
2022-01-10 16:44:00,,0839.9,5.01,0.00,23.9,23.2,00.0,32.7,25.7,06.8,0000.0,0003.18,0000.85,0000.37
2022-01-10 16:45:00,,0839.9,4.96,0.00,23.9,23.2,00.0,32.7,25.8,06.5,0000.0,0004.16,0000.91,0000.39
2022-01-10 16:46:00,,0839.9,5.01,0.00,23.9,23.2,00.0,32.7,25.8,06.4,0000.0,0004.12,0000.89,0000.39
2022-01-10 16:47:00,,0839.9,5.00,0.00,23.9,23.2,00.0,32.7,25.8,06.3,0000.0,0004.24,0000.87,0000.39
2022-01-10 16:48:00,,0840.0,5.01,0.00,23.9,23.3,00.0,32.7,25.9,06.4,0000.0,0004.27,0000.88,0000.39
2022-01-10 16:49:00,,0840.0,4.99,0.00,24.0,23.3,00.0,32.7,25.9,06.2,0000.0,0004.18,0000.85,0000.40
2022-01-10 16:50:00,,0839.9,5.01,0.00,24.0,23.3,00.0,32.8,25.9,06.0,0000.0,0003.45,0000.81,0000.39
2022-01-10 16:51:00,,0839.9,5.00,0.00,24.0,23.3,00.0,32.8,25.9,06.1,0000.0,0003.68,0000.79,0000.39
2022-01-10 16:52:00,,0839.9,4.99,0.00,24.0,23.3,00.0,32.8,25.9,06.3,0000.0,0004.04,0000.77,0000.39
2022-01-10 16:53:00,,0839.8,5.00,0.00,24.0,23.3,00.0,32.8,25.9,06.0,0000.0,0003.94,0000.72,0000.39
2022-01-10 16:54:00,,0839.8,5.01,0.00,24.0,23.3,00.0,32.8,25.9,05.6,0000.0,0004.88,0000.72,0000.39
2022-01-10 16:55:00,,0839.8,5.00,0.00,24.0,23.3,00.0,32.8,25.9,06.1,0000.0,0004.87,0000.70,0000.37
2022-01-10 16:56:00,,0839.8,5.00,0.00,24.0,23.3,00.0,32.9,25.9,06.2,0000.0,0003.96,0000.66,0000.36
2022-01-10 16:57:00,,0839.8,5.01,0.00,24.1,23.3,00.0,32.9,26.0,06.2,0000.0,0003.96,0000.64,0000.35
2022-01-10 16:58:00,,0839.8,4.99,0.00,24.1,23.3,00.0,32.9,26.0,06.0,0000.0,0003.98,0000.63,0000.34
2022-01-10 16:59:00,,0839.8,5.00,0.00,24.1,23.3,00.0,32.9,26.0,06.1,0000.0,0003.82,0000.58,0000.34
